Home > Weather > Cologne > Past weeks

Flag for Germany Weather for the Past 2 Weeks in Cologne, North Rhine-Westphalia, Germany

Now
59 °F

Passing clouds.


Feels Like: 56 °F
Forecast: 39 / 66 °F
Wind: 14 mph from Northeast

Location: Koeln / Bonn

Current Time: May 1, 2016 at 4:12:58 PM

Latest Report: May 1, 2016 at 3:20 PM


Visibility: N/A

Pressure: 30.24 "Hg

Humidity: 55%

Dew Point: 43 °F

Location of CologneLocation

Historic Weather in Cologne — Graph

°F

Cologne Temperature Yesterday

Maximum temperature yesterday: 50 °F (at 2:50 PM)
Minimum temperature yesterday: 43 °F (at 3:20 AM)
Average temperature yesterday: 46 °F

High & Low Weather Summary for the Past Weeks

 TemperatureHumidityPressure
High70 °F (Apr 21, 3:50 PM)100% (Apr 18, 4:20 AM)30.45 "Hg (Apr 18, 4:20 AM)
Low30 °F (Apr 18, 5:50 AM)23% (Apr 21, 4:50 PM)29.53 "Hg (Apr 26, 10:50 AM)
Average46 °F69%30.00 "Hg
* Reported Apr 16 3:20 PM — May 1 3:20 PM, Cologne, Weather by CustomWeather, © 2016

Note: Actual official high and low records may vary slightly from our data, if they occured in-between our weather recording intervals... More about our weather records

Advertising

Cologne Weather History for the Previous 24 Hours

Scroll right to see more
 ConditionsComfort  
Time TempWeatherWind HumidityBarometerVisibility
3:20 PM
Sun, May 1
59 °FPassing clouds.14 mph55%30.24 "HgN/A
2:20 PM57 °FScattered clouds.12 mph55%30.24 "HgN/A
1:50 PM57 °FScattered clouds.15 mph59%30.24 "HgN/A
1:20 PM55 °FScattered clouds.10 mph63%30.24 "HgN/A
12:50 PM54 °FPartly sunny.14 mph63%30.24 "HgN/A
12:20 PM52 °FPartly sunny.13 mph67%30.27 "HgN/A
11:50 AM50 °FPartly sunny.14 mph71%30.27 "HgN/A
11:20 AM48 °FPartly sunny.13 mph76%30.27 "HgN/A
10:50 AM46 °FPartly sunny.15 mph76%30.27 "HgN/A
10:20 AM46 °FPartly sunny.15 mph82%30.24 "HgN/A
9:50 AM45 °FPartly sunny.9 mph87%30.24 "HgN/A
8:50 AM43 °FPartly sunny.8 mph93%30.24 "HgN/A
8:20 AM43 °FBroken clouds.9 mph93%30.24 "HgN/A
7:50 AM43 °FLight rain. Broken clouds.8 mph87%30.24 "HgN/A
7:20 AM43 °FLight rain. Broken clouds.7 mph87%30.21 "HgN/A
6:20 AM43 °FLight rain. Passing clouds.7 mph87%30.21 "HgN/A
5:50 AM43 °FLight rain. Partly cloudy.8 mph93%30.21 "Hg6 mi
5:20 AM43 °FLight rain. Partly cloudy.8 mph93%30.18 "HgN/A
4:20 AM43 °FRain. Partly cloudy.7 mph93%30.18 "HgN/A
3:50 AM43 °FRain. Mostly cloudy.6 mph93%30.18 "HgN/A
3:20 AM43 °FLight rain. Mostly cloudy.7 mph93%30.18 "HgN/A
2:50 AM45 °FLight rain. Mostly cloudy.8 mph87%30.18 "HgN/A
2:20 AM45 °FLight rain. Passing clouds.7 mph87%30.15 "HgN/A
1:50 AM45 °FLight rain. Partly cloudy.6 mph87%30.15 "HgN/A
1:20 AM45 °FLight rain. Mostly cloudy.6 mph87%30.15 "HgN/A
12:50 AM45 °FLight rain. Mostly cloudy.6 mph87%30.15 "HgN/A
12:20 AM45 °FLight rain. Overcast.7 mph87%30.15 "HgN/A
11:50 PM
Sat, Apr 30
46 °FLight rain. Overcast.7 mph82%30.15 "HgN/A
11:20 PM46 °FLight rain. Clear.6 mph76%30.15 "HgN/A
10:50 PM46 °FClear.6 mph76%30.15 "Hg10 mi
10:20 PM46 °FClear.6 mph76%30.12 "Hg10 mi
9:50 PM48 °FSunny.7 mph71%30.12 "Hg10 mi
9:20 PM48 °FBroken clouds.7 mph71%30.12 "HgN/A
8:50 PM48 °FMore clouds than sun.8 mph66%30.12 "HgN/A
8:20 PM48 °FMore clouds than sun.8 mph66%30.09 "HgN/A
7:50 PM50 °FMore clouds than sun.9 mph62%30.09 "HgN/A
7:20 PM50 °FMore clouds than sun.8 mph62%30.09 "HgN/A
6:50 PM50 °FMore clouds than sun.8 mph67%30.09 "HgN/A
6:20 PM50 °FMore clouds than sun.8 mph62%30.09 "HgN/A
5:50 PM50 °FMostly cloudy.10 mph67%30.09 "HgN/A
5:20 PM50 °FMore clouds than sun.10 mph67%30.09 "HgN/A
4:50 PM50 °FMore clouds than sun.8 mph67%30.09 "HgN/A
4:20 PM50 °FMostly cloudy.9 mph62%30.09 "HgN/A
Weather by CustomWeather, © 2016

See weather overviewHow to use our weather pages